Location: Grandview
(34.8900°N, 117.1058°W)
Time: 12:43:09
(UTC-08:00)

Vanguard 1 Rocket - Visible Passes

Search period start: 11 December 2017 00:00
Search period end: 21 December 2017 00:00
Orbit: 656 x 4222 km, 34.3° (Epoch: 09 December)

Date Brightness Start Highest point End Pass type
(mag) Time Alt. Az. Time Alt. Az. Time Alt. Az.
11 Dec 11.4 01:50:19 16° S 01:50:19 16° S 01:53:35 10° S visible
11 Dec 9.5 16:38:37 10° SW 16:47:49 64° SSE 17:06:12 10° ENE visible
11 Dec 9.8 19:03:15 10° W 19:16:54 88° S 19:25:51 48° E visible
11 Dec 10.4 21:30:04 10° W 21:43:08 59° W 21:43:08 59° W visible
11 Dec 11.6 23:59:42 10° WNW 00:42:51 11° SSE 00:43:22 10° SSE visible
12 Dec 9.6 17:52:16 10° WSW 18:03:22 84° SSE 18:18:37 23° E visible
12 Dec 10.0 20:18:05 10° W 20:34:21 84° SSW 20:35:54 80° SE visible
12 Dec 11.1 22:45:59 10° WNW 23:35:20 - SE 22:53:11 30° W visible
13 Dec 11.6 01:52:34 12° S 01:52:34 12° S 01:54:08 10° S visible
13 Dec 9.4 16:41:47 10° WSW 16:50:48 72° SSE 17:09:05 10° E visible
13 Dec 9.8 19:06:39 10° W 19:20:02 88° S 19:28:43 48° E visible
13 Dec 10.4 21:33:20 10° WNW 21:46:00 56° WSW 21:46:00 56° WSW visible
14 Dec 11.7 00:44:57 10° SSE 00:44:57 10° SSE 00:03:17 10° W visible
14 Dec 9.5 17:55:39 10° W 18:06:31 87° S 18:21:34 23° E visible
14 Dec 10.0 20:21:24 10° W 20:37:19 79° SSW 20:38:52 77° SSE visible
14 Dec 11.1 22:49:21 10° WNW 23:37:17 - SE 22:56:09 28° W visible
15 Dec 9.3 16:45:05 10° WSW 16:53:54 79° SSE 17:11:59 10° E visible
15 Dec 9.8 19:10:02 10° W 19:23:10 86° S 19:31:47 48° ESE visible
15 Dec 10.5 21:36:38 10° WNW 21:49:05 53° WSW 21:49:05 53° WSW visible
16 Dec11.700:46:45S00:46:45S00:06:23Wvisible
16 Dec 9.5 17:59:04 10° W 18:09:44 88° S 18:24:46 23° E visible
16 Dec 10.0 20:24:44 10° W 20:40:14 73° SSW 20:42:04 71° S visible
16 Dec 11.2 22:52:55 10° W 23:38:53 - SSE 22:59:23 26° W visible
17 Dec 9.2 16:48:28 10° WSW 16:57:06 84° S 17:14:54 10° E visible
17 Dec 9.7 19:13:24 10° W 19:26:16 82° SSW 19:35:09 46° ESE visible
17 Dec 10.5 21:40:01 10° W 21:52:27 49° WSW 21:52:27 49° WSW visible
18 Dec11.800:48:09S00:48:09S00:09:47Wvisible
18 Dec 9.4 18:02:29 10° W 18:12:57 87° S 18:28:19 21° E visible
18 Dec 10.1 20:28:05 10° W 20:43:08 66° SSW 20:45:39 63° S visible
18 Dec 11.2 22:56:46 10° W 23:40:05 - SSE 23:02:58 23° W visible
19 Dec 9.1 16:51:53 10° W 17:00:22 87° S 17:17:51 10° E visible
19 Dec 9.8 19:16:47 10° W 19:29:20 76° SSW 19:38:56 42° ESE visible
19 Dec 10.6 21:43:33 10° W 21:56:17 44° SW 21:56:17 44° SW visible
20 Dec11.800:49:06S00:49:06S00:13:38Wvisible
20 Dec 9.4 18:05:55 10° W 18:16:11 84° S 18:32:23 19° ESE visible
20 Dec 10.2 20:31:30 10° W 20:46:00 58° SSW 20:49:44 53° S visible
